RH
84 94 100 98 50 58 83 83 95 69 60 98 83 40 70 76 48 40 29 26 18 17 20 25 19 21 22
90 88 100 100 79 41 79 97 82 74 72 92 84 46 46 84 68 51 36 40 24 19 19 23 21 22 24
92 100 100 100 92 75 46 60 75 70 70 72 98 52 53 79 94 66 51 42 28 21 20 18 18 20 23
93 93 81 93 100 81 62 46 76 85 66 58 77 50 60 81 99 74 38 42 32 24 22 20 18 22 26
100 100 92 83 73 79 92 52 57 63 81 45 46 34 63 92 85 65 34 42 39 32 24 21 20 19 25
100 100 100 95 92 89 82 64 50 42 71 40 30 36 61 96 66 55 24 37 45 37 29 22 21 19 20
100 100 100 100 100 100 100 81 59 44 44 37 26 32 36 74 52 38 24 32 38 48 30 23 25 20 20
100 100 100 100 100 100 100 100 76 50 35 27 24 21 32 48 43 36 30 37 39 47 34 24 29 23 19
100 100 100 100 100 100 100 95 72 60 55 48 41 42 47 50 53 42 38 36 41 45 34 26 40 28 21
100 100 100 100 100 100 100 100 86 75 56 47 52 29 53 59 32 48 41 34 35 52 44 26 51 38 29
100 99 100 100 100 100 96 100 100 70 100 80 58 47 38 55 37 25 34 38 35 49 40 60 42 51 36
100 100 98 100 100 100 100 96 100 98 90 100 90 75 54 40 40 35 36 42 35 34 36 60 58 56 48
100 100 100 100 100 100 100 97 100 100 100 100 93 83 79 79 63 55 46 54 38 42 47 64 61 62 62
100 100 100 100 100 100 100 100 100 100 76 97 100 100 100 100 65 73 50 68 40 39 49 38 55 68 75
100 100 100 100 100 100 100 100 100 99 98 86 89 97 100 100 64 66 69 71 44 42 38 39 43 48 78
37 100 100 100 100 100 100 100 100 100 99 98 97 87 82 75 63 72 80 67 44 51 45 47 48 71 66
20 86 100 100 100 100 100 100 100 100 100 100 100 87 100 100 90 100 80 77 56 44 47 61 61 71 77
Wind_Speed
90 83 78 77 74 70 66 64 67 62 54 51 47 41 32 30 27 29 21 20 22 22 26 27 24 30 31
89 85 80 78 79 74 72 67 64 58 58 53 46 44 41 31 29 32 30 21 26 21 27 26 26 34 34
95 88 85 80 80 78 74 70 64 59 55 51 49 44 43 37 32 35 32 25 23 23 27 25 28 33 36
103 96 94 89 85 82 76 70 63 62 58 54 50 45 42 41 36 39 35 27 26 22 28 31 31 31 35
108 102 106 99 99 89 81 75 71 65 59 55 48 48 46 47 46 43 37 32 31 28 25 32 31 34 36
115 106 101 100 99 94 94 81 74 71 64 58 54 47 50 53 52 48 38 34 34 29 26 32 33 34 37
113 110 102 101 98 95 91 84 87 83 75 67 65 59 53 61 56 51 42 37 35 33 30 30 32 34 35
127 118 109 105 104 101 94 88 81 83 84 77 76 71 64 57 55 52 44 41 38 39 34 28 33 34 32
137 133 122 114 109 106 102 92 88 78 70 67 70 64 62 59 53 52 50 48 44 45 40 33 36 32 34
139 138 133 125 118 110 107 98 88 81 73 70 72 66 64 64 58 52 51 45 46 48 44 35 39 35 35
144 148 143 134 129 119 115 105 93 87 79 80 78 75 69 69 61 54 52 46 42 50 47 43 38 40 35
143 145 147 140 136 129 123 114 102 98 93 88 79 80 77 73 67 55 51 51 46 51 53 46 40 42 39
153 142 145 142 138 130 130 125 120 109 97 92 82 85 77 76 73 71 62 55 50 54 54 50 45 43 46
162 156 151 145 140 137 134 126 122 117 111 104 95 93 85 79 80 66 61 57 56 53 55 53 47 45 47
167 167 151 150 147 138 129 129 122 119 115 110 108 101 90 84 84 77 64 61 60 54 52 59 45 45 50
167 168 164 156 148 141 140 141 127 126 126 116 109 104 103 96 91 82 74 69 62 58 59 59 50 52 48
174 169 166 165 152 152 141 137 131 120 117 116 109 106 103 94 89 78 85 79 73 67 62 61 52 50 52
Wind_Direction
218 219 221 221 223 224 226 225 232 236 235 232 236 230 233 247 253 257 262 272 295 317 335 331 337 341 350
217 212 214 220 222 226 224 227 227 232 232 231 230 232 236 237 248 250 255 274 280 307 323 327 329 333 336
213 210 213 216 223 223 223 226 227 226 226 230 229 237 241 234 239 248 254 261 273 295 308 323 320 323 329
216 216 219 220 222 224 222 217 222 226 226 231 231 235 236 229 233 242 245 249 260 282 296 321 326 320 321
221 219 225 225 227 226 221 217 220 223 227 229 232 234 231 229 230 235 241 248 256 277 291 315 321 329 324
222 220 220 223 224 227 226 222 224 229 229 232 230 233 228 227 235 241 248 248 254 267 280 304 315 320 326
218 220 218 217 221 222 225 224 225 229 225 228 230 230 229 232 239 249 253 254 258 257 275 287 300 315 325
220 220 216 216 220 222 224 224 218 221 223 229 232 231 227 231 244 246 254 256 255 258 269 280 291 306 323
222 223 221 218 221 221 224 223 222 223 222 221 228 228 230 231 238 245 252 256 254 256 269 278 284 297 309
221 222 224 224 222 222 224 223 223 222 226 222 230 231 232 232 237 242 247 252 253 254 262 272 278 286 302
223 224 225 228 227 225 226 225 223 225 228 220 228 231 233 237 234 237 245 246 251 254 261 259 271 280 287
220 224 226 227 228 228 227 227 227 227 227 221 228 233 234 237 241 238 244 243 249 258 263 260 266 273 281
219 220 224 225 227 226 229 229 230 228 227 229 229 231 233 238 244 246 253 244 249 256 258 255 262 270 275
219 220 222 223 225 227 229 227 229 231 230 231 229 232 237 238 246 247 244 241 247 253 254 255 258 265 275
218 221 220 223 224 224 225 228 230 232 232 233 234 234 236 238 247 250 235 240 245 248 251 251 258 270 275
221 221 223 222 223 226 227 229 230 234 236 235 231 235 236 239 245 248 245 247 246 247 249 248 253 258 276
222 220 221 224 224 225 225 227 227 227 230 228 229 234 237 240 241 241 244 243 249 245 245 248 252 258 272